Weather in Koelga

Russia / Chelyabinsk Oblast     54°38′55″N   60°54′10″E
temp.,
°C
wind,
m/s
gust,
m/s
humid.,
%
clouds,
%
prec.,
mm/h
press.,
hPa
HPBL,
m
17 june, thu
thu1723:00+17sw128299 1.1 101319
02:00+16w4881100 0.0 1013134
05:00+17wsw2270100 0.0 101136
08:00+20sse4866100 0.0 1008208
11:00+26sw3547100 0.0 1007830
14:00+27w454676 0.0 10061373
17:00+18nnw91195100 10.6 1006403
20:00+17nw358996 5.6 1007209
18 june, fri
fri1823:00+15nnw7148732 5.7 1008484
02:00+13nnw614823 0.0 1009378
05:00+13nnw61471100 0.0 1010438
08:00+14nnw811645 0.0 1012683
11:00+15n811581 0.0 10141213
14:00+17nne8105112 0.0 10161914
17:00+17n712440 0.0 10172117
20:00+15ne35625 0.0 1018158
19 june, sat
sat1923:00+13wsw455148 0.0 102090
02:00+10wnw48695 0.0 1020131
05:00+9nw411675 0.0 1021205
08:00+14nw6125793 0.0 1021552
11:00+15nnw61159100 0.0 10211024
14:00+17nw61057100 0.0 10201312
17:00+16nw5116199 0.0 1019722
20:00+17nw71268100 0.1 1017921
20 june, sun
sun2023:00+13wnw31097100 4.0 1017456
02:00+15wnw51196100 2.7 1015357
05:00+15wnw4896100 3.2 1014238
08:00+17wnw5119249 0.2 1013470
11:00+21nw71178100 0.3 1013986
14:00+24nnw8146697 1.1 10121746
17:00+25nnw711546 1.3 10121835
20:00+21nnw513600 0.0 1014400
21 june, mon
mon2123:00+16nnw514580 0.0 1016313
02:00+12nnw47670 0.0 1018102
05:00+11nnw35680 0.0 101983
08:00+17nnw35570 0.0 1019296
11:00+21nnw46465 0.0 10191159
14:00+24nnw46444 0.0 10181432
17:00+26nw48457 0.0 10162175
20:00+23wnw510665 0.0 1015285